owner,sensor,date,latitude,longitude,vertical_datum,sea_water_temperature,qcFlag 
WAVCIS,ioos:station:WAVCIS:CSI09:1,2008-03-01T00:00:00Z,29.1015,-89.9782,0.0,18.4,11111222 
WAVCIS,ioos:station:WAVCIS:CSI09:1,2008-03-01T01:00:00Z,29.1015,-89.9782,0.0,18.4,11111222 
WAVCIS,ioos:station:WAVCIS:CSI09:1,2008-03-01T02:00:00Z,29.1015,-89.9782,0.0,18.39,11111222 
WAVCIS,ioos:station:WAVCIS:CSI09:1,2008-03-01T03:00:00Z,29.1015,-89.9782,0.0,18.38,11111222 
WAVCIS,ioos:station:WAVCIS:CSI09:1,2008-03-01T04:00:00Z,29.1015,-89.9782,0.0,18.38,11111222 
WAVCIS,ioos:station:WAVCIS:CSI09:1,2008-03-01T05:00:00Z,29.1015,-89.9782,0.0,18.37,11111222 
WAVCIS,ioos:station:WAVCIS:CSI09:1,2008-03-01T06:00:00Z,29.1015,-89.9782,0.0,18.32,11111222 
WAVCIS,ioos:station:WAVCIS:CSI09:1,2008-03-01T07:00:00Z,29.1015,-89.9782,0.0,18.13,11111222 
WAVCIS,ioos:station:WAVCIS:CSI09:1,2008-03-01T08:00:00Z,29.1015,-89.9782,0.0,17.84,11111222 
WAVCIS,ioos:station:WAVCIS:CSI09:1,2008-03-01T09:00:00Z,29.1015,-89.9782,0.0,17.77,11111222 
WAVCIS,ioos:station:WAVCIS:CSI09:1,2008-03-01T10:00:00Z,29.1015,-89.9782,0.0,17.51,11111222 
WAVCIS,ioos:station:WAVCIS:CSI09:1,2008-03-01T11:00:00Z,29.1015,-89.9782,0.0,17.54,11111222 
WAVCIS,ioos:station:WAVCIS:CSI09:1,2008-03-01T12:00:00Z,29.1015,-89.9782,0.0,17.39,11111222 
WAVCIS,ioos:station:WAVCIS:CSI09:1,2008-03-01T13:00:00Z,29.1015,-89.9782,0.0,17.34,11111222 
WAVCIS,ioos:station:WAVCIS:CSI09:1,2008-03-01T14:00:00Z,29.1015,-89.9782,0.0,17.21,11111222 
WAVCIS,ioos:station:WAVCIS:CSI09:1,2008-03-01T15:00:00Z,29.1015,-89.9782,0.0,17.26,11111222 
WAVCIS,ioos:station:WAVCIS:CSI09:1,2008-03-01T16:00:00Z,29.1015,-89.9782,0.0,17.54,11111222 
WAVCIS,ioos:station:WAVCIS:CSI09:1,2008-03-01T17:00:00Z,29.1015,-89.9782,0.0,17.65,11111222 
WAVCIS,ioos:station:WAVCIS:CSI09:1,2008-03-01T18:00:00Z,29.1015,-89.9782,0.0,17.6,11111222 
WAVCIS,ioos:station:WAVCIS:CSI09:1,2008-03-01T19:00:00Z,29.1015,-89.9782,0.0,17.74,11111222 
WAVCIS,ioos:station:WAVCIS:CSI09:1,2008-03-01T20:00:00Z,29.1015,-89.9782,0.0,18.14,11111222 
WAVCIS,ioos:station:WAVCIS:CSI09:1,2008-03-01T21:00:00Z,29.1015,-89.9782,0.0,19.11,11111222 
WAVCIS,ioos:station:WAVCIS:CSI09:1,2008-03-01T22:00:00Z,29.1015,-89.9782,0.0,19.08,11111222 
WAVCIS,ioos:station:WAVCIS:CSI09:1,2008-03-01T23:00:00Z,29.1015,-89.9782,0.0,19.0,11111222 
WAVCIS,ioos:station:WAVCIS:CSI09:1,2008-03-02T00:00:00Z,29.1015,-89.9782,0.0,18.96,11111222 
WAVCIS,ioos:station:WAVCIS:CSI09:1,2008-03-02T01:00:00Z,29.1015,-89.9782,0.0,18.79,11111222 
WAVCIS,ioos:station:WAVCIS:CSI09:1,2008-03-02T02:00:00Z,29.1015,-89.9782,0.0,18.92,11111222 
WAVCIS,ioos:station:WAVCIS:CSI09:1,2008-03-02T03:00:00Z,29.1015,-89.9782,0.0,18.87,11111222 
WAVCIS,ioos:station:WAVCIS:CSI09:1,2008-03-02T04:00:00Z,29.1015,-89.9782,0.0,18.84,11111222 
WAVCIS,ioos:station:WAVCIS:CSI09:1,2008-03-02T05:00:00Z,29.1015,-89.9782,0.0,18.74,11111222 
WAVCIS,ioos:station:WAVCIS:CSI09:1,2008-03-02T06:00:00Z,29.1015,-89.9782,0.0,18.7,11111222 
WAVCIS,ioos:station:WAVCIS:CSI09:1,2008-03-02T07:00:00Z,29.1015,-89.9782,0.0,18.56,11111222 
WAVCIS,ioos:station:WAVCIS:CSI09:1,2008-03-02T08:00:00Z,29.1015,-89.9782,0.0,18.48,11111222 
WAVCIS,ioos:station:WAVCIS:CSI09:1,2008-03-02T09:00:00Z,29.1015,-89.9782,0.0,18.34,11111222 
WAVCIS,ioos:station:WAVCIS:CSI09:1,2008-03-02T10:00:00Z,29.1015,-89.9782,0.0,18.21,11111222 
WAVCIS,ioos:station:WAVCIS:CSI09:1,2008-03-02T11:00:00Z,29.1015,-89.9782,0.0,17.77,11111222 
WAVCIS,ioos:station:WAVCIS:CSI09:1,2008-03-02T12:00:00Z,29.1015,-89.9782,0.0,17.59,11111222 
WAVCIS,ioos:station:WAVCIS:CSI09:1,2008-03-02T13:00:00Z,29.1015,-89.9782,0.0,17.57,11111222 
WAVCIS,ioos:station:WAVCIS:CSI09:1,2008-03-02T14:00:00Z,29.1015,-89.9782,0.0,17.4,11111222 
WAVCIS,ioos:station:WAVCIS:CSI09:1,2008-03-02T15:00:00Z,29.1015,-89.9782,0.0,17.74,11111222 
WAVCIS,ioos:station:WAVCIS:CSI09:1,2008-03-02T16:00:00Z,29.1015,-89.9782,0.0,18.07,11111222 
WAVCIS,ioos:station:WAVCIS:CSI09:1,2008-03-02T17:00:00Z,29.1015,-89.9782,0.0,18.27,11111222 
WAVCIS,ioos:station:WAVCIS:CSI09:1,2008-03-02T18:00:00Z,29.1015,-89.9782,0.0,18.33,11111222 
WAVCIS,ioos:station:WAVCIS:CSI09:1,2008-03-02T19:00:00Z,29.1015,-89.9782,0.0,18.43,11111222 
WAVCIS,ioos:station:WAVCIS:CSI09:1,2008-03-02T20:00:00Z,29.1015,-89.9782,0.0,18.48,11111222 
WAVCIS,ioos:station:WAVCIS:CSI09:1,2008-03-02T21:00:00Z,29.1015,-89.9782,0.0,18.54,11111222 
WAVCIS,ioos:station:WAVCIS:CSI09:1,2008-03-02T22:00:00Z,29.1015,-89.9782,0.0,18.62,11111222 
WAVCIS,ioos:station:WAVCIS:CSI09:1,2008-03-02T23:00:00Z,29.1015,-89.9782,0.0,18.55,11111222 
WAVCIS,ioos:station:WAVCIS:CSI09:1,2008-03-03T00:00:00Z,29.1015,-89.9782,0.0,18.57,11111222 
WAVCIS,ioos:station:WAVCIS:CSI09:1,2008-03-03T01:00:00Z,29.1015,-89.9782,0.0,18.54,11111222 
WAVCIS,ioos:station:WAVCIS:CSI09:1,2008-03-03T02:00:00Z,29.1015,-89.9782,0.0,18.49,11111222 
WAVCIS,ioos:station:WAVCIS:CSI09:1,2008-03-03T03:00:00Z,29.1015,-89.9782,0.0,18.45,11111222 
WAVCIS,ioos:station:WAVCIS:CSI09:1,2008-03-03T04:00:00Z,29.1015,-89.9782,0.0,18.39,11111222 
WAVCIS,ioos:station:WAVCIS:CSI09:1,2008-03-03T05:00:00Z,29.1015,-89.9782,0.0,18.35,11111222 
WAVCIS,ioos:station:WAVCIS:CSI09:1,2008-03-03T06:00:00Z,29.1015,-89.9782,0.0,18.27,11111222 
WAVCIS,ioos:station:WAVCIS:CSI09:1,2008-03-03T07:00:00Z,29.1015,-89.9782,0.0,18.23,11111222 
WAVCIS,ioos:station:WAVCIS:CSI09:1,2008-03-03T08:00:00Z,29.1015,-89.9782,0.0,18.23,11111222 
WAVCIS,ioos:station:WAVCIS:CSI09:1,2008-03-03T09:00:00Z,29.1015,-89.9782,0.0,18.19,11111222 
WAVCIS,ioos:station:WAVCIS:CSI09:1,2008-03-03T10:00:00Z,29.1015,-89.9782,0.0,18.18,11111222 
WAVCIS,ioos:station:WAVCIS:CSI09:1,2008-03-03T11:00:00Z,29.1015,-89.9782,0.0,18.14,11111222 
WAVCIS,ioos:station:WAVCIS:CSI09:1,2008-03-03T12:00:00Z,29.1015,-89.9782,0.0,18.13,11111222 
WAVCIS,ioos:station:WAVCIS:CSI09:1,2008-03-03T13:00:00Z,29.1015,-89.9782,0.0,18.17,11111222 
WAVCIS,ioos:station:WAVCIS:CSI09:1,2008-03-03T14:00:00Z,29.1015,-89.9782,0.0,18.19,11111222 
WAVCIS,ioos:station:WAVCIS:CSI09:1,2008-03-03T15:00:00Z,29.1015,-89.9782,0.0,18.22,11111222 
WAVCIS,ioos:station:WAVCIS:CSI09:1,2008-03-03T16:00:00Z,29.1015,-89.9782,0.0,18.27,11111222 
WAVCIS,ioos:station:WAVCIS:CSI09:1,2008-03-03T17:00:00Z,29.1015,-89.9782,0.0,18.36,11111222 
WAVCIS,ioos:station:WAVCIS:CSI09:1,2008-03-03T18:00:00Z,29.1015,-89.9782,0.0,18.47,11111222 
WAVCIS,ioos:station:WAVCIS:CSI09:1,2008-03-03T19:00:00Z,29.1015,-89.9782,0.0,18.48,11111222 
WAVCIS,ioos:station:WAVCIS:CSI09:1,2008-03-03T20:00:00Z,29.1015,-89.9782,0.0,18.57,11111222 
WAVCIS,ioos:station:WAVCIS:CSI09:1,2008-03-03T21:00:00Z,29.1015,-89.9782,0.0,18.58,11111222 
WAVCIS,ioos:station:WAVCIS:CSI09:1,2008-03-03T22:00:00Z,29.1015,-89.9782,0.0,18.63,11111222 
WAVCIS,ioos:station:WAVCIS:CSI09:1,2008-03-03T23:00:00Z,29.1015,-89.9782,0.0,18.65,11111222 
WAVCIS,ioos:station:WAVCIS:CSI09:1,2008-03-04T00:00:00Z,29.1015,-89.9782,0.0,18.66,11111222 
WAVCIS,ioos:station:WAVCIS:CSI09:1,2008-03-04T01:00:00Z,29.1015,-89.9782,0.0,18.65,11111222 
WAVCIS,ioos:station:WAVCIS:CSI09:1,2008-03-04T02:00:00Z,29.1015,-89.9782,0.0,18.65,11111222 
WAVCIS,ioos:station:WAVCIS:CSI09:1,2008-03-04T03:00:00Z,29.1015,-89.9782,0.0,18.64,11111222 
WAVCIS,ioos:station:WAVCIS:CSI09:1,2008-03-04T04:00:00Z,29.1015,-89.9782,0.0,18.64,11111222 
WAVCIS,ioos:station:WAVCIS:CSI09:1,2008-03-04T05:00:00Z,29.1015,-89.9782,0.0,18.63,11111222 
WAVCIS,ioos:station:WAVCIS:CSI09:1,2008-03-04T06:00:00Z,29.1015,-89.9782,0.0,18.65,11111222 
WAVCIS,ioos:station:WAVCIS:CSI09:1,2008-03-04T07:00:00Z,29.1015,-89.9782,0.0,18.62,11111222 
WAVCIS,ioos:station:WAVCIS:CSI09:1,2008-03-04T08:00:00Z,29.1015,-89.9782,0.0,18.64,11111222 
WAVCIS,ioos:station:WAVCIS:CSI09:1,2008-03-04T09:00:00Z,29.1015,-89.9782,0.0,18.62,11111222 
WAVCIS,ioos:station:WAVCIS:CSI09:1,2008-03-04T10:00:00Z,29.1015,-89.9782,0.0,18.61,11111222 
WAVCIS,ioos:station:WAVCIS:CSI09:1,2008-03-04T11:00:00Z,29.1015,-89.9782,0.0,18.34,11111222 
WAVCIS,ioos:station:WAVCIS:CSI09:1,2008-03-04T12:00:00Z,29.1015,-89.9782,0.0,18.38,11111222 
WAVCIS,ioos:station:WAVCIS:CSI09:1,2008-03-04T13:00:00Z,29.1015,-89.9782,0.0,18.43,11111222 
WAVCIS,ioos:station:WAVCIS:CSI09:1,2008-03-04T14:00:00Z,29.1015,-89.9782,0.0,18.44,11111222 
WAVCIS,ioos:station:WAVCIS:CSI09:1,2008-03-04T15:00:00Z,29.1015,-89.9782,0.0,18.45,11111222 
WAVCIS,ioos:station:WAVCIS:CSI09:1,2008-03-04T16:00:00Z,29.1015,-89.9782,0.0,18.47,11111222 
WAVCIS,ioos:station:WAVCIS:CSI09:1,2008-03-04T17:00:00Z,29.1015,-89.9782,0.0,18.5,11111222 
WAVCIS,ioos:station:WAVCIS:CSI09:1,2008-03-04T18:00:00Z,29.1015,-89.9782,0.0,18.56,11111222 
WAVCIS,ioos:station:WAVCIS:CSI09:1,2008-03-04T19:00:00Z,29.1015,-89.9782,0.0,18.62,11111222 
WAVCIS,ioos:station:WAVCIS:CSI09:1,2008-03-04T20:00:00Z,29.1015,-89.9782,0.0,18.69,11111222 
WAVCIS,ioos:station:WAVCIS:CSI09:1,2008-03-04T21:00:00Z,29.1015,-89.9782,0.0,18.72,11111222 
WAVCIS,ioos:station:WAVCIS:CSI09:1,2008-03-04T22:00:00Z,29.1015,-89.9782,0.0,18.75,11111222 
WAVCIS,ioos:station:WAVCIS:CSI09:1,2008-03-04T23:00:00Z,29.1015,-89.9782,0.0,18.73,11111222 
WAVCIS,ioos:station:WAVCIS:CSI09:1,2008-03-05T00:00:00Z,29.1015,-89.9782,0.0,18.7,11111222 
WAVCIS,ioos:station:WAVCIS:CSI09:1,2008-03-05T01:00:00Z,29.1015,-89.9782,0.0,18.69,11111222 
WAVCIS,ioos:station:WAVCIS:CSI09:1,2008-03-05T02:00:00Z,29.1015,-89.9782,0.0,18.62,11111222 
WAVCIS,ioos:station:WAVCIS:CSI09:1,2008-03-05T03:00:00Z,29.1015,-89.9782,0.0,18.54,11111222 
WAVCIS,ioos:station:WAVCIS:CSI09:1,2008-03-05T05:00:00Z,29.1015,-89.9782,0.0,18.73,11111222 
WAVCIS,ioos:station:WAVCIS:CSI09:1,2008-03-05T06:00:00Z,29.1015,-89.9782,0.0,18.91,11111222 
WAVCIS,ioos:station:WAVCIS:CSI09:1,2008-03-05T07:00:00Z,29.1015,-89.9782,0.0,18.78,11111222 
WAVCIS,ioos:station:WAVCIS:CSI09:1,2008-03-05T08:00:00Z,29.1015,-89.9782,0.0,18.55,11111222 
WAVCIS,ioos:station:WAVCIS:CSI09:1,2008-03-05T10:00:00Z,29.1015,-89.9782,0.0,18.44,11111222 
WAVCIS,ioos:station:WAVCIS:CSI09:1,2008-03-05T11:00:00Z,29.1015,-89.9782,0.0,18.27,11111222 
WAVCIS,ioos:station:WAVCIS:CSI09:1,2008-03-05T13:00:00Z,29.1015,-89.9782,0.0,18.13,11111222 
WAVCIS,ioos:station:WAVCIS:CSI09:1,2008-03-05T14:00:00Z,29.1015,-89.9782,0.0,18.03,11111222 
WAVCIS,ioos:station:WAVCIS:CSI09:1,2008-03-05T15:00:00Z,29.1015,-89.9782,0.0,18.0,11111222 
WAVCIS,ioos:station:WAVCIS:CSI09:1,2008-03-05T17:00:00Z,29.1015,-89.9782,0.0,18.2,11111222 
WAVCIS,ioos:station:WAVCIS:CSI09:1,2008-03-05T18:00:00Z,29.1015,-89.9782,0.0,18.34,11111222 
WAVCIS,ioos:station:WAVCIS:CSI09:1,2008-03-05T19:00:00Z,29.1015,-89.9782,0.0,18.36,11111222 
WAVCIS,ioos:station:WAVCIS:CSI09:1,2008-03-05T20:00:00Z,29.1015,-89.9782,0.0,18.31,11111222 
WAVCIS,ioos:station:WAVCIS:CSI09:1,2008-03-05T21:00:00Z,29.1015,-89.9782,0.0,18.42,11111222 
WAVCIS,ioos:station:WAVCIS:CSI09:1,2008-03-05T22:00:00Z,29.1015,-89.9782,0.0,18.45,11111222 
WAVCIS,ioos:station:WAVCIS:CSI09:1,2008-03-05T23:00:00Z,29.1015,-89.9782,0.0,18.48,11111222 
WAVCIS,ioos:station:WAVCIS:CSI09:1,2008-03-06T00:00:00Z,29.1015,-89.9782,0.0,18.49,11111222 
WAVCIS,ioos:station:WAVCIS:CSI09:1,2008-03-06T01:00:00Z,29.1015,-89.9782,0.0,18.5,11111222 
WAVCIS,ioos:station:WAVCIS:CSI09:1,2008-03-06T02:00:00Z,29.1015,-89.9782,0.0,18.42,11111222 
WAVCIS,ioos:station:WAVCIS:CSI09:1,2008-03-06T03:00:00Z,29.1015,-89.9782,0.0,18.35,11111222 
WAVCIS,ioos:station:WAVCIS:CSI09:1,2008-03-06T04:00:00Z,29.1015,-89.9782,0.0,18.44,11111222 
WAVCIS,ioos:station:WAVCIS:CSI09:1,2008-03-06T05:00:00Z,29.1015,-89.9782,0.0,18.56,11111222 
WAVCIS,ioos:station:WAVCIS:CSI09:1,2008-03-06T06:00:00Z,29.1015,-89.9782,0.0,18.63,11111222 
WAVCIS,ioos:station:WAVCIS:CSI09:1,2008-03-06T07:00:00Z,29.1015,-89.9782,0.0,18.52,11111222 
WAVCIS,ioos:station:WAVCIS:CSI09:1,2008-03-06T08:00:00Z,29.1015,-89.9782,0.0,18.49,11111222 
WAVCIS,ioos:station:WAVCIS:CSI09:1,2008-03-06T09:00:00Z,29.1015,-89.9782,0.0,18.44,11111222 
WAVCIS,ioos:station:WAVCIS:CSI09:1,2008-03-06T12:00:00Z,29.1015,-89.9782,0.0,18.15,11111222 
WAVCIS,ioos:station:WAVCIS:CSI09:1,2008-03-06T13:00:00Z,29.1015,-89.9782,0.0,18.22,11111222 
WAVCIS,ioos:station:WAVCIS:CSI09:1,2008-03-06T14:00:00Z,29.1015,-89.9782,0.0,17.47,11111222 
WAVCIS,ioos:station:WAVCIS:CSI09:1,2008-03-06T15:00:00Z,29.1015,-89.9782,0.0,17.39,11111222 
WAVCIS,ioos:station:WAVCIS:CSI09:1,2008-03-06T16:00:00Z,29.1015,-89.9782,0.0,17.46,11111222 
WAVCIS,ioos:station:WAVCIS:CSI09:1,2008-03-06T17:00:00Z,29.1015,-89.9782,0.0,17.53,11111222 
WAVCIS,ioos:station:WAVCIS:CSI09:1,2008-03-06T18:00:00Z,29.1015,-89.9782,0.0,17.52,11111222 
WAVCIS,ioos:station:WAVCIS:CSI09:1,2008-03-06T19:00:00Z,29.1015,-89.9782,0.0,17.73,11111222 
WAVCIS,ioos:station:WAVCIS:CSI09:1,2008-03-06T20:00:00Z,29.1015,-89.9782,0.0,17.83,11111222 
WAVCIS,ioos:station:WAVCIS:CSI09:1,2008-03-06T21:00:00Z,29.1015,-89.9782,0.0,17.23,11111222 
WAVCIS,ioos:station:WAVCIS:CSI09:1,2008-03-06T22:00:00Z,29.1015,-89.9782,0.0,17.15,11111222 
WAVCIS,ioos:station:WAVCIS:CSI09:1,2008-03-06T23:00:00Z,29.1015,-89.9782,0.0,17.12,11111222 
WAVCIS,ioos:station:WAVCIS:CSI09:1,2008-03-07T00:00:00Z,29.1015,-89.9782,0.0,17.12,11111222 
WAVCIS,ioos:station:WAVCIS:CSI09:1,2008-03-07T12:00:00Z,29.1015,-89.9782,0.0,17.35,11111222 
WAVCIS,ioos:station:WAVCIS:CSI09:1,2008-03-07T13:00:00Z,29.1015,-89.9782,0.0,17.39,11111222 
WAVCIS,ioos:station:WAVCIS:CSI09:1,2008-03-07T14:00:00Z,29.1015,-89.9782,0.0,17.84,11111222 
WAVCIS,ioos:station:WAVCIS:CSI09:1,2008-03-07T15:00:00Z,29.1015,-89.9782,0.0,17.83,11111222 
WAVCIS,ioos:station:WAVCIS:CSI09:1,2008-03-07T17:00:00Z,29.1015,-89.9782,0.0,17.81,11111222 
WAVCIS,ioos:station:WAVCIS:CSI09:1,2008-03-07T18:00:00Z,29.1015,-89.9782,0.0,17.74,11111222 
WAVCIS,ioos:station:WAVCIS:CSI09:1,2008-03-07T19:00:00Z,29.1015,-89.9782,0.0,17.63,11111222 
WAVCIS,ioos:station:WAVCIS:CSI09:1,2008-03-07T20:00:00Z,29.1015,-89.9782,0.0,17.66,11111222 
WAVCIS,ioos:station:WAVCIS:CSI09:1,2008-03-07T21:00:00Z,29.1015,-89.9782,0.0,17.78,11111222 
WAVCIS,ioos:station:WAVCIS:CSI09:1,2008-03-07T22:00:00Z,29.1015,-89.9782,0.0,17.77,11111222 
WAVCIS,ioos:station:WAVCIS:CSI09:1,2008-03-07T23:00:00Z,29.1015,-89.9782,0.0,17.8,11111222 
WAVCIS,ioos:station:WAVCIS:CSI09:1,2008-03-08T00:00:00Z,29.1015,-89.9782,0.0,17.94,11111222 
WAVCIS,ioos:station:WAVCIS:CSI09:1,2008-03-08T01:00:00Z,29.1015,-89.9782,0.0,17.85,11111222 
WAVCIS,ioos:station:WAVCIS:CSI09:1,2008-03-08T02:00:00Z,29.1015,-89.9782,0.0,18.22,11111222 
WAVCIS,ioos:station:WAVCIS:CSI09:1,2008-03-08T03:00:00Z,29.1015,-89.9782,0.0,18.42,11111222 
WAVCIS,ioos:station:WAVCIS:CSI09:1,2008-03-08T04:00:00Z,29.1015,-89.9782,0.0,18.47,11111222 
WAVCIS,ioos:station:WAVCIS:CSI09:1,2008-03-08T05:00:00Z,29.1015,-89.9782,0.0,18.62,11111222 
WAVCIS,ioos:station:WAVCIS:CSI09:1,2008-03-08T06:00:00Z,29.1015,-89.9782,0.0,18.76,11111222 
WAVCIS,ioos:station:WAVCIS:CSI09:1,2008-03-08T07:00:00Z,29.1015,-89.9782,0.0,18.92,11111222 
WAVCIS,ioos:station:WAVCIS:CSI09:1,2008-03-08T08:00:00Z,29.1015,-89.9782,0.0,18.98,11111222 
WAVCIS,ioos:station:WAVCIS:CSI09:1,2008-03-08T09:00:00Z,29.1015,-89.9782,0.0,19.03,11111222 
WAVCIS,ioos:station:WAVCIS:CSI09:1,2008-03-08T10:00:00Z,29.1015,-89.9782,0.0,19.09,11111222 
WAVCIS,ioos:station:WAVCIS:CSI09:1,2008-03-08T11:00:00Z,29.1015,-89.9782,0.0,19.04,11111222 
WAVCIS,ioos:station:WAVCIS:CSI09:1,2008-03-08T12:00:00Z,29.1015,-89.9782,0.0,19.0,11111222 
WAVCIS,ioos:station:WAVCIS:CSI09:1,2008-03-08T13:00:00Z,29.1015,-89.9782,0.0,18.87,11111222 
WAVCIS,ioos:station:WAVCIS:CSI09:1,2008-03-08T14:00:00Z,29.1015,-89.9782,0.0,18.98,11111222 
WAVCIS,ioos:station:WAVCIS:CSI09:1,2008-03-08T15:00:00Z,29.1015,-89.9782,0.0,18.67,11111222 
WAVCIS,ioos:station:WAVCIS:CSI09:1,2008-03-08T16:00:00Z,29.1015,-89.9782,0.0,18.79,11111222 
WAVCIS,ioos:station:WAVCIS:CSI09:1,2008-03-08T17:00:00Z,29.1015,-89.9782,0.0,18.78,11111222 
WAVCIS,ioos:station:WAVCIS:CSI09:1,2008-03-08T18:00:00Z,29.1015,-89.9782,0.0,18.8,11111222 
WAVCIS,ioos:station:WAVCIS:CSI09:1,2008-03-08T19:00:00Z,29.1015,-89.9782,0.0,18.84,11111222 
WAVCIS,ioos:station:WAVCIS:CSI09:1,2008-03-08T20:00:00Z,29.1015,-89.9782,0.0,18.74,11111222 
WAVCIS,ioos:station:WAVCIS:CSI09:1,2008-03-08T21:00:00Z,29.1015,-89.9782,0.0,18.66,11111222 
WAVCIS,ioos:station:WAVCIS:CSI09:1,2008-03-08T22:00:00Z,29.1015,-89.9782,0.0,18.54,11111222 
WAVCIS,ioos:station:WAVCIS:CSI09:1,2008-03-08T23:00:00Z,29.1015,-89.9782,0.0,18.47,11111222 
WAVCIS,ioos:station:WAVCIS:CSI09:1,2008-03-09T00:00:00Z,29.1015,-89.9782,0.0,18.44,11111222 
WAVCIS,ioos:station:WAVCIS:CSI09:1,2008-03-09T01:00:00Z,29.1015,-89.9782,0.0,18.42,11111222 
WAVCIS,ioos:station:WAVCIS:CSI09:1,2008-03-09T02:00:00Z,29.1015,-89.9782,0.0,19.08,11111222 
WAVCIS,ioos:station:WAVCIS:CSI09:1,2008-03-09T03:00:00Z,29.1015,-89.9782,0.0,18.73,11111222 
WAVCIS,ioos:station:WAVCIS:CSI09:1,2008-03-09T04:00:00Z,29.1015,-89.9782,0.0,18.28,11111222 
WAVCIS,ioos:station:WAVCIS:CSI09:1,2008-03-09T05:00:00Z,29.1015,-89.9782,0.0,18.11,11111222 
WAVCIS,ioos:station:WAVCIS:CSI09:1,2008-03-09T06:00:00Z,29.1015,-89.9782,0.0,18.18,11111222 
WAVCIS,ioos:station:WAVCIS:CSI09:1,2008-03-09T07:00:00Z,29.1015,-89.9782,0.0,18.05,11111222 
WAVCIS,ioos:station:WAVCIS:CSI09:1,2008-03-09T08:00:00Z,29.1015,-89.9782,0.0,17.87,11111222 
WAVCIS,ioos:station:WAVCIS:CSI09:1,2008-03-09T09:00:00Z,29.1015,-89.9782,0.0,17.68,11111222 
WAVCIS,ioos:station:WAVCIS:CSI09:1,2008-03-09T10:00:00Z,29.1015,-89.9782,0.0,17.56,11111222 
WAVCIS,ioos:station:WAVCIS:CSI09:1,2008-03-09T11:00:00Z,29.1015,-89.9782,0.0,17.47,11111222 
WAVCIS,ioos:station:WAVCIS:CSI09:1,2008-03-09T12:00:00Z,29.1015,-89.9782,0.0,17.41,11111222 
WAVCIS,ioos:station:WAVCIS:CSI09:1,2008-03-09T13:00:00Z,29.1015,-89.9782,0.0,17.43,11111222 
WAVCIS,ioos:station:WAVCIS:CSI09:1,2008-03-09T14:00:00Z,29.1015,-89.9782,0.0,17.42,11111222 
WAVCIS,ioos:station:WAVCIS:CSI09:1,2008-03-09T15:00:00Z,29.1015,-89.9782,0.0,17.42,11111222 
WAVCIS,ioos:station:WAVCIS:CSI09:1,2008-03-09T16:00:00Z,29.1015,-89.9782,0.0,17.46,11111222 
WAVCIS,ioos:station:WAVCIS:CSI09:1,2008-03-09T17:00:00Z,29.1015,-89.9782,0.0,17.53,11111222 
WAVCIS,ioos:station:WAVCIS:CSI09:1,2008-03-09T18:00:00Z,29.1015,-89.9782,0.0,17.55,11111222 
WAVCIS,ioos:station:WAVCIS:CSI09:1,2008-03-09T19:00:00Z,29.1015,-89.9782,0.0,17.63,11111222 
WAVCIS,ioos:station:WAVCIS:CSI09:1,2008-03-09T20:00:00Z,29.1015,-89.9782,0.0,17.7,11111222 
WAVCIS,ioos:station:WAVCIS:CSI09:1,2008-03-09T21:00:00Z,29.1015,-89.9782,0.0,17.76,11111222 
WAVCIS,ioos:station:WAVCIS:CSI09:1,2008-03-09T22:00:00Z,29.1015,-89.9782,0.0,17.8,11111222 
WAVCIS,ioos:station:WAVCIS:CSI09:1,2008-03-09T23:00:00Z,29.1015,-89.9782,0.0,17.81,11111222 
WAVCIS,ioos:station:WAVCIS:CSI09:1,2008-03-10T00:00:00Z,29.1015,-89.9782,0.0,17.82,11111222 
WAVCIS,ioos:station:WAVCIS:CSI09:1,2008-03-10T01:00:00Z,29.1015,-89.9782,0.0,17.82,11111222 
WAVCIS,ioos:station:WAVCIS:CSI09:1,2008-03-10T02:00:00Z,29.1015,-89.9782,0.0,17.84,11111222 
WAVCIS,ioos:station:WAVCIS:CSI09:1,2008-03-10T03:00:00Z,29.1015,-89.9782,0.0,17.84,11111222 
WAVCIS,ioos:station:WAVCIS:CSI09:1,2008-03-10T04:00:00Z,29.1015,-89.9782,0.0,17.86,11111222 
WAVCIS,ioos:station:WAVCIS:CSI09:1,2008-03-10T05:00:00Z,29.1015,-89.9782,0.0,17.86,11111222 
WAVCIS,ioos:station:WAVCIS:CSI09:1,2008-03-10T06:00:00Z,29.1015,-89.9782,0.0,17.87,11111222 
WAVCIS,ioos:station:WAVCIS:CSI09:1,2008-03-10T07:00:00Z,29.1015,-89.9782,0.0,17.85,11111222 
WAVCIS,ioos:station:WAVCIS:CSI09:1,2008-03-10T08:00:00Z,29.1015,-89.9782,0.0,17.87,11111222 
WAVCIS,ioos:station:WAVCIS:CSI09:1,2008-03-10T09:00:00Z,29.1015,-89.9782,0.0,17.87,11111222 
WAVCIS,ioos:station:WAVCIS:CSI09:1,2008-03-10T10:00:00Z,29.1015,-89.9782,0.0,17.86,11111222 
WAVCIS,ioos:station:WAVCIS:CSI09:1,2008-03-10T11:00:00Z,29.1015,-89.9782,0.0,17.86,11111222 
WAVCIS,ioos:station:WAVCIS:CSI09:1,2008-03-10T12:00:00Z,29.1015,-89.9782,0.0,17.9,11111222 
WAVCIS,ioos:station:WAVCIS:CSI09:1,2008-03-10T13:00:00Z,29.1015,-89.9782,0.0,17.95,11111222 
WAVCIS,ioos:station:WAVCIS:CSI09:1,2008-03-10T14:00:00Z,29.1015,-89.9782,0.0,17.98,11111222 
WAVCIS,ioos:station:WAVCIS:CSI09:1,2008-03-10T15:00:00Z,29.1015,-89.9782,0.0,17.93,11111222 
WAVCIS,ioos:station:WAVCIS:CSI09:1,2008-03-10T16:00:00Z,29.1015,-89.9782,0.0,17.94,11111222 
WAVCIS,ioos:station:WAVCIS:CSI09:1,2008-03-10T17:00:00Z,29.1015,-89.9782,0.0,17.95,11111222 
WAVCIS,ioos:station:WAVCIS:CSI09:1,2008-03-10T18:00:00Z,29.1015,-89.9782,0.0,18.0,11111222 
WAVCIS,ioos:station:WAVCIS:CSI09:1,2008-03-10T19:00:00Z,29.1015,-89.9782,0.0,18.16,11111222 
WAVCIS,ioos:station:WAVCIS:CSI09:1,2008-03-10T20:00:00Z,29.1015,-89.9782,0.0,18.21,11111222 
WAVCIS,ioos:station:WAVCIS:CSI09:1,2008-03-10T21:00:00Z,29.1015,-89.9782,0.0,18.14,11111222 
WAVCIS,ioos:station:WAVCIS:CSI09:1,2008-03-10T22:00:00Z,29.1015,-89.9782,0.0,18.26,11111222 
WAVCIS,ioos:station:WAVCIS:CSI09:1,2008-03-10T23:00:00Z,29.1015,-89.9782,0.0,18.14,11111222 
WAVCIS,ioos:station:WAVCIS:CSI09:1,2008-03-11T00:00:00Z,29.1015,-89.9782,0.0,18.04,11111222 
WAVCIS,ioos:station:WAVCIS:CSI09:1,2008-03-11T01:00:00Z,29.1015,-89.9782,0.0,18.21,11111222 
WAVCIS,ioos:station:WAVCIS:CSI09:1,2008-03-11T02:00:00Z,29.1015,-89.9782,0.0,18.16,11111222 
WAVCIS,ioos:station:WAVCIS:CSI09:1,2008-03-11T03:00:00Z,29.1015,-89.9782,0.0,18.12,11111222 
WAVCIS,ioos:station:WAVCIS:CSI09:1,2008-03-11T04:00:00Z,29.1015,-89.9782,0.0,18.18,11111222 
WAVCIS,ioos:station:WAVCIS:CSI09:1,2008-03-11T05:00:00Z,29.1015,-89.9782,0.0,18.22,11111222 
WAVCIS,ioos:station:WAVCIS:CSI09:1,2008-03-11T06:00:00Z,29.1015,-89.9782,0.0,18.23,11111222 
WAVCIS,ioos:station:WAVCIS:CSI09:1,2008-03-11T07:00:00Z,29.1015,-89.9782,0.0,18.24,11111222 
WAVCIS,ioos:station:WAVCIS:CSI09:1,2008-03-11T08:00:00Z,29.1015,-89.9782,0.0,18.25,11111222 
WAVCIS,ioos:station:WAVCIS:CSI09:1,2008-03-11T09:00:00Z,29.1015,-89.9782,0.0,18.25,11111222 
WAVCIS,ioos:station:WAVCIS:CSI09:1,2008-03-11T10:00:00Z,29.1015,-89.9782,0.0,18.22,11111222 
WAVCIS,ioos:station:WAVCIS:CSI09:1,2008-03-11T11:00:00Z,29.1015,-89.9782,0.0,18.23,11111222 
WAVCIS,ioos:station:WAVCIS:CSI09:1,2008-03-11T12:00:00Z,29.1015,-89.9782,0.0,18.26,11111222 
WAVCIS,ioos:station:WAVCIS:CSI09:1,2008-03-11T13:00:00Z,29.1015,-89.9782,0.0,18.23,11111222 
WAVCIS,ioos:station:WAVCIS:CSI09:1,2008-03-11T14:00:00Z,29.1015,-89.9782,0.0,18.26,11111222 
WAVCIS,ioos:station:WAVCIS:CSI09:1,2008-03-11T15:00:00Z,29.1015,-89.9782,0.0,18.26,11111222 
WAVCIS,ioos:station:WAVCIS:CSI09:1,2008-03-11T16:00:00Z,29.1015,-89.9782,0.0,18.24,11111222 
WAVCIS,ioos:station:WAVCIS:CSI09:1,2008-03-11T17:00:00Z,29.1015,-89.9782,0.0,18.26,11111222 
WAVCIS,ioos:station:WAVCIS:CSI09:1,2008-03-11T18:00:00Z,29.1015,-89.9782,0.0,18.33,11111222 
WAVCIS,ioos:station:WAVCIS:CSI09:1,2008-03-11T19:00:00Z,29.1015,-89.9782,0.0,18.42,11111222 
WAVCIS,ioos:station:WAVCIS:CSI09:1,2008-03-11T20:00:00Z,29.1015,-89.9782,0.0,18.48,11111222 
WAVCIS,ioos:station:WAVCIS:CSI09:1,2008-03-11T21:00:00Z,29.1015,-89.9782,0.0,18.45,11111222 
WAVCIS,ioos:station:WAVCIS:CSI09:1,2008-03-11T22:00:00Z,29.1015,-89.9782,0.0,18.44,11111222 
WAVCIS,ioos:station:WAVCIS:CSI09:1,2008-03-11T23:00:00Z,29.1015,-89.9782,0.0,18.45,11111222 
WAVCIS,ioos:station:WAVCIS:CSI09:1,2008-03-12T00:00:00Z,29.1015,-89.9782,0.0,18.48,11111222 
WAVCIS,ioos:station:WAVCIS:CSI09:1,2008-03-12T01:00:00Z,29.1015,-89.9782,0.0,18.46,11111222 
WAVCIS,ioos:station:WAVCIS:CSI09:1,2008-03-12T02:00:00Z,29.1015,-89.9782,0.0,18.46,11111222 
WAVCIS,ioos:station:WAVCIS:CSI09:1,2008-03-12T03:00:00Z,29.1015,-89.9782,0.0,18.47,11111222 
WAVCIS,ioos:station:WAVCIS:CSI09:1,2008-03-12T04:00:00Z,29.1015,-89.9782,0.0,18.54,11111222 
WAVCIS,ioos:station:WAVCIS:CSI09:1,2008-03-12T05:00:00Z,29.1015,-89.9782,0.0,18.54,11111222 
WAVCIS,ioos:station:WAVCIS:CSI09:1,2008-03-12T06:00:00Z,29.1015,-89.9782,0.0,18.53,11111222 
WAVCIS,ioos:station:WAVCIS:CSI09:1,2008-03-12T07:00:00Z,29.1015,-89.9782,0.0,18.5,11111222 
WAVCIS,ioos:station:WAVCIS:CSI09:1,2008-03-12T08:00:00Z,29.1015,-89.9782,0.0,18.23,11111222 
WAVCIS,ioos:station:WAVCIS:CSI09:1,2008-03-12T09:00:00Z,29.1015,-89.9782,0.0,18.28,11111222 
WAVCIS,ioos:station:WAVCIS:CSI09:1,2008-03-12T10:00:00Z,29.1015,-89.9782,0.0,18.35,11111222 